[[{"header":{"parameterUnit":"m.s-1","parameterCategory":1,"la1":30.2991,"la2":30.254,"lo1":-89.0895,"lo2":-89.0444,"dx":0.0017,"dy":0.0017,"nx":28,"ny":28,"refTime":"2022-12-15T09:00:00:Z","depth":0,"parameterNumber":2,"parameterNumberName":"U-component_of_WINDS"},"data":[0,0,0,0,0,0,0,0,0,0,0,0,0,0,0,0,0,0,0,0,0,0,0,0,0,0,0,0,0,0,0,0,0,0,0,0,0,0,0,0,0,0,0,0,0,0,0,0,0,0,0,0,0,0,0,0,0,0,5.0843,5.0845,0,5.1094,5.1096,5.1099,5.1098,5.1095,5.1092,5.1088,5.1352,5.1362,5.1372,0,0,0,0,0,0,0,0,0,0,0,0,0,5.0371,5.038,5.0843,5.0846,5.0849,5.1093,5.1097,5.11,5.1099,5.1095,5.1091,5.1087,5.1349,5.1361,5.1373,0,0,0,0,0,0,0,0,0,0,0,0,0,5.0595,5.0383,5.0842,5.0878,5.0883,5.1092,5.1097,5.1101,5.11,5.1095,5.109,5.1085,5.1345,5.1359,5.1374,5.1567,0,0,5.1421,5.1427,0,0,0,0,0,0,0,0,5.0582,5.0612,5.0869,5.0875,5.0882,5.1059,5.1027,5.1257,5.1101,5.1018,5.1088,5.1083,5.1259,5.1281,5.1339,5.1579,5.159,5.1422,5.1431,5.1438,5.1442,0,0,0,0,0,0,0,5.0566,5.0601,5.0942,5.0873,5.0881,5.0884,5.091,5.1071,5.1163,5.1025,5.1025,5.1054,5.1262,5.1324,5.1345,5.1594,5.1422,5.1435,5.1444,5.145,5.2011,5.2016,0,0,0,0,0,0,5.0543,5.0588,5.0934,5.095,5.0717,5.0896,5.0926,5.1008,5.1161,5.118,5.1058,5.1053,5.1301,5.1328,5.1355,5.1594,5.1438,5.1452,5.146,5.2005,5.2012,5.2018,0,0,0,0,0,0,5.0532,5.0573,5.0924,5.0769,5.0814,5.091,5.1002,5.1015,5.1078,5.1187,5.1204,5.1105,5.1298,5.1333,5.1515,5.1603,5.1459,5.1472,5.1998,5.2007,5.2015,5.2071,0,0,0,0,0,0,5.0519,5.057,5.0641,5.0771,5.0822,5.1077,5.1007,5.1024,5.1103,5.1099,5.1235,5.1253,5.1297,5.1492,5.153,5.1621,5.1484,5.1991,5.2002,5.2012,5.2062,5.208,5.2096,0,0,0,0,0,5.0502,5.0648,5.0645,5.0687,5.0914,5.1082,5.1112,5.1158,5.111,5.1185,5.1256,5.1249,5.1586,5.1511,5.1553,5.165,5.1986,5.1999,5.2012,5.2054,5.2077,5.2096,0,0,0,0,0,0,5.0527,5.0665,5.0664,5.0855,5.0957,5.1082,5.1177,5.118,5.1299,5.129,5.1344,5.1375,5.1557,5.1622,5.1535,5.1847,5.1781,5.1803,5.1798,5.1821,5.1838,5.182,5.1497,0,0,0,0,0,5.0555,5.0678,5.0792,5.095,5.1001,5.1081,5.1156,5.1182,5.1291,5.1335,5.1418,5.1526,5.1657,5.1742,5.1868,5.2071,5.2103,5.2159,5.2176,5.219,5.2209,5.2326,5.2353,5.2061,5.2061,5.2061,0,0,5.0614,5.0704,5.0779,5.0958,5.104,5.117,5.1117,5.1255,5.1353,5.1356,5.1533,5.1599,5.1723,5.1917,5.2007,5.1977,5.2297,5.2206,5.2216,5.2229,5.2342,5.2369,5.2394,5.207,5.2069,5.2067,0,0,5.0787,5.0866,5.1008,5.1092,5.1217,5.1269,5.1303,5.1429,5.1472,5.165,5.1657,5.1775,5.1998,5.2088,5.2163,5.2375,5.2374,5.2414,5.2506,5.2619,5.2642,5.2663,5.2742,5.2769,5.2433,5.2433,5.2433,0,5.0845,5.1038,5.1081,5.1221,5.1302,5.131,5.1456,5.1536,5.1696,5.1754,5.1717,5.2,5.2084,5.2301,5.2353,5.2412,5.2456,5.2399,5.2634,5.2656,5.2676,5.2752,5.2781,5.2437,5.2437,5.2436,5.2436,0,5.1105,5.1239,5.1339,5.1493,5.1585,5.1727,5.1796,5.1884,5.1904,5.1961,5.2145,5.2246,5.2395,5.2448,5.2468,5.267,5.2648,5.2622,5.2557,5.2707,5.278,5.2809,5.2443,5.2442,5.244,5.2439,0,0,5.1301,5.1478,5.1515,5.1587,5.1726,5.1833,5.1977,5.2121,5.2198,5.2309,5.2435,5.2625,5.2603,5.2688,5.2719,5.2818,5.2985,5.2781,5.2785,5.2818,5.3218,5.3238,5.3271,5.2985,5.299,5.2995,5.3209,0,5.1492,5.1746,5.1792,5.2016,5.2143,5.2154,5.2281,5.2382,5.244,5.2559,5.2625,5.276,5.2719,5.2771,5.2869,5.2943,5.3066,5.2928,5.3106,5.3112,5.3076,5.3308,5.3329,5.3526,5.3237,5.3242,5.3245,0,5.1748,5.1866,5.2102,5.2228,5.2283,5.2396,5.2534,5.2646,5.2763,5.2799,5.2895,5.2916,5.3071,5.2998,5.3215,5.312,5.3196,5.3244,5.3253,5.3273,5.3189,5.3338,5.359,5.362,5.329,5.3286,5.3283,0,5.1872,5.2089,5.226,5.232,5.2471,5.2551,5.2617,5.2729,5.2814,5.2936,5.2993,5.3131,5.3208,5.3316,5.3375,5.3316,5.359,5.352,5.3628,5.3627,5.3686,5.3682,5.3957,5.3731,5.373,5.3729,5.3729,0,5.2082,5.2227,5.2318,5.2423,5.2587,5.2639,5.2802,5.2868,5.2968,5.3089,5.3107,5.3221,5.3291,5.3416,5.3464,5.3639,5.3673,5.3709,5.3721,5.3709,5.3705,5.3761,5.375,5.3737,5.3736,5.3734,5.3733,0,5.2248,5.2314,5.2501,5.2629,5.2665,5.2781,5.2891,5.2996,5.3055,5.3208,5.3247,5.3341,5.3489,5.3559,5.3743,5.3775,5.3976,5.3976,5.3935,5.394,5.4045,5.4036,5.4367,5.4415,5.4154,5.4157,5.4159,0,5.2379,5.2491,5.2631,5.2712,5.2781,5.2912,5.2999,5.3056,5.3147,5.329,5.3379,5.3528,5.365,5.3888,5.3975,5.4117,5.4124,5.423,5.4145,5.4132,5.413,5.4123,5.4137,5.4246,5.4249,5.4251,5.4252,0,5.2606,5.2634,5.2757,5.2894,5.2997,5.3107,5.3216,5.3282,5.3357,5.3459,5.361,5.3705,5.3894,5.4043,5.4192,5.4265,5.4274,5.4278,5.4311,5.4302,5.4275,5.4295,5.398,5.4271,5.4269,5.4268,5.4267,5.4266,5.2761,5.2863,5.2978,5.3116,5.3204,5.3305,5.3411,5.3483,5.361,5.3766,5.3793,5.3955,5.4074,5.4275,5.4353,5.4483,5.4459,5.4506,5.4518,5.453,5.4538,5.4252,5.451,5.451,5.451,5.4509,5.4509,0,5.2992,5.3067,5.3193,5.3345,5.3455,5.345,5.3571,5.3664,5.3806,5.3915,5.4035,5.4212,5.4358,5.4456,5.4605,5.4691,5.47,5.4729,5.4725,5.4742,5.4549,5.4507,5.472,5.472,5.472,5.472,5.472,5.472,5.3125,5.3298,5.334,5.3558,5.3633,5.379,5.3861,5.3956,5.4044,5.4239,5.436,5.4422,5.4529,5.4686,5.4822,5.4847,5.4903,5.4934,5.4959,5.4777,5.4755,5.4734,5.4695,5.4945,5.4945,5.5142,5.5144,5.5145]},{"header":{"parameterUnit":"m.s-1","parameterCategory":1,"la1":30.2991,"la2":30.254,"lo1":-89.0895,"lo2":-89.0444,"dx":0.0017,"dy":0.0017,"nx":28,"ny":28,"refTime":"2022-12-15T09:00:00:Z","depth":0,"parameterNumber":3,"parameterNumberName":"V-component_of_WINDS"},"data":[0,0,0,0,0,0,0,0,0,0,0,0,0,0,0,0,0,0,0,0,0,0,0,0,0,0,0,0,0,0,0,0,0,0,0,0,0,0,0,0,0,0,0,0,0,0,0,0,0,0,0,0,0,0,0,0,0,0,-3.5794,-3.5794,0,-3.5752,-3.5751,-3.5751,-3.5781,-3.5782,-3.5784,-3.5785,-3.5729,-3.5726,-3.5723,0,0,0,0,0,0,0,0,0,0,0,0,0,-3.589,-3.5888,-3.5794,-3.5794,-3.5793,-3.5752,-3.5751,-3.575,-3.5781,-3.5782,-3.5784,-3.5786,-3.573,-3.5726,-3.5723,0,0,0,0,0,0,0,0,0,0,0,0,0,-3.5848,-3.5888,-3.5794,-3.5803,-3.5804,-3.5752,-3.5751,-3.575,-3.578,-3.5782,-3.5784,-3.5786,-3.5731,-3.5727,-3.5723,-3.5655,0,0,-3.571,-3.5708,0,0,0,0,0,0,0,0,-3.585,-3.5844,-3.5803,-3.5803,-3.5803,-3.5774,-3.5764,-3.5718,-3.578,-3.5789,-3.5785,-3.5787,-3.5741,-3.5736,-3.5723,-3.5653,-3.565,-3.571,-3.5707,-3.5705,-3.5704,0,0,0,0,0,0,0,-3.5853,-3.5846,-3.5777,-3.5802,-3.5802,-3.5806,-3.5802,-3.5756,-3.5753,-3.5788,-3.579,-3.5786,-3.5742,-3.5727,-3.5722,-3.5649,-3.571,-3.5706,-3.5703,-3.5702,-3.5519,-3.5517,0,0,0,0,0,0,-3.5857,-3.5848,-3.5778,-3.5776,-3.5833,-3.5803,-3.5798,-3.5781,-3.5754,-3.5752,-3.5784,-3.5787,-3.5734,-3.5727,-3.572,-3.5639,-3.5705,-3.5701,-3.5699,-3.5521,-3.5519,-3.5516,0,0,0,0,0,0,-3.5859,-3.585,-3.578,-3.5813,-3.5804,-3.5799,-3.5779,-3.5779,-3.5765,-3.5751,-3.575,-3.577,-3.5735,-3.5726,-3.5672,-3.5637,-3.5699,-3.5696,-3.5524,-3.552,-3.5517,-3.5475,0,0,0,0,0,0,-3.5861,-3.5851,-3.5828,-3.5812,-3.5802,-3.5735,-3.5777,-3.5777,-3.5759,-3.5763,-3.5738,-3.5736,-3.5736,-3.5678,-3.5668,-3.5633,-3.5692,-3.5527,-3.5523,-3.5518,-3.548,-3.5471,-3.5463,0,0,0,0,0,-3.5865,-3.5815,-3.5827,-3.5818,-3.5774,-3.5734,-3.5727,-3.5732,-3.5756,-3.5731,-3.5722,-3.5736,-3.5643,-3.5672,-3.5661,-3.5624,-3.5529,-3.5524,-3.5519,-3.5483,-3.5472,-3.5463,0,0,0,0,0,0,-3.5823,-3.5813,-3.5826,-3.5771,-3.5753,-3.5739,-3.5708,-3.5721,-3.5693,-3.5697,-3.57,-3.5694,-3.5637,-3.5625,-3.5657,-3.5556,-3.5589,-3.5582,-3.5566,-3.5556,-3.5548,-3.5551,-3.5689,0,0,0,0,0,-3.5808,-3.578,-3.5772,-3.5723,-3.5715,-3.5713,-3.5695,-3.5701,-3.5681,-3.5672,-3.5659,-3.5636,-3.5601,-3.5578,-3.5546,-3.5479,-3.5472,-3.5447,-3.5439,-3.5432,-3.5425,-3.5386,-3.5375,-3.5499,-3.5499,-3.5499,0,0,-3.5776,-3.5767,-3.5748,-3.5715,-3.5702,-3.5669,-3.5706,-3.5669,-3.5643,-3.5665,-3.5614,-3.5603,-3.5577,-3.5516,-3.5488,-3.5504,-3.5389,-3.5426,-3.542,-3.5416,-3.538,-3.5368,-3.5357,-3.5495,-3.5496,-3.5496,0,0,-3.5699,-3.5691,-3.565,-3.5637,-3.5619,-3.5618,-3.5608,-3.5592,-3.5587,-3.5536,-3.5552,-3.5519,-3.546,-3.544,-3.5423,-3.534,-3.535,-3.5328,-3.5284,-3.5247,-3.5237,-3.5228,-3.5196,-3.5185,-3.5321,-3.5321,-3.5321,0,-3.566,-3.5615,-3.5626,-3.5589,-3.5572,-3.5595,-3.5551,-3.5537,-3.5506,-3.5493,-3.5512,-3.5439,-3.5423,-3.5356,-3.5336,-3.5322,-3.5307,-3.533,-3.5238,-3.5229,-3.5221,-3.5191,-3.5179,-3.5319,-3.5319,-3.5319,-3.5319,0,-3.5566,-3.5534,-3.5502,-3.5477,-3.5457,-3.5417,-3.5418,-3.5396,-3.5403,-3.5399,-3.5345,-3.5328,-3.5292,-3.5276,-3.5281,-3.521,-3.522,-3.5239,-3.5272,-3.5207,-3.5178,-3.5167,-3.5315,-3.5316,-3.5316,-3.5317,0,0,-3.5461,-3.5444,-3.5432,-3.542,-3.5402,-3.5375,-3.5334,-3.5303,-3.5283,-3.5261,-3.5224,-3.5174,-3.5192,-3.5171,-3.5174,-3.5142,-3.5074,-3.5164,-3.5163,-3.5146,-3.4992,-3.4977,-3.4963,-3.5083,-3.5081,-3.5079,-3.4993,0,-3.5382,-3.5316,-3.5325,-3.5259,-3.5228,-3.5249,-3.5213,-3.5195,-3.519,-3.516,-3.5153,-3.5117,-3.5143,-3.5131,-3.51,-3.5089,-3.5043,-3.5096,-3.5044,-3.5042,-3.5049,-3.4949,-3.4932,-3.4853,-3.4982,-3.498,-3.4979,0,-3.5282,-3.5261,-3.5193,-3.5179,-3.5166,-3.5134,-3.5106,-3.5078,-3.5057,-3.5055,-3.5034,-3.5043,-3.4997,-3.5033,-3.4969,-3.5004,-3.4984,-3.4975,-3.4972,-3.4965,-3.5005,-3.4937,-3.4827,-3.4815,-3.4962,-3.4963,-3.4964,0,-3.5209,-3.5164,-3.5117,-3.5107,-3.509,-3.5066,-3.5057,-3.5039,-3.502,-3.4993,-3.498,-3.4947,-3.4928,-3.4901,-3.4899,-3.4926,-3.4833,-3.4869,-3.4827,-3.4826,-3.4804,-3.4805,-3.4688,-3.4794,-3.4795,-3.4795,-3.4795,0,-3.5119,-3.5076,-3.5085,-3.5055,-3.5007,-3.5016,-3.4967,-3.496,-3.4944,-3.4911,-3.4926,-3.4894,-3.4894,-3.486,-3.4858,-3.4803,-3.4795,-3.4789,-3.4789,-3.4787,-3.4788,-3.4772,-3.4777,-3.4792,-3.4792,-3.4793,-3.4793,0,-3.5029,-3.5034,-3.4984,-3.4973,-3.4969,-3.4934,-3.4922,-3.4893,-3.489,-3.4848,-3.4839,-3.4832,-3.4793,-3.479,-3.4743,-3.4741,-3.4675,-3.4681,-3.4683,-3.4683,-3.4641,-3.4644,-3.4507,-3.4488,-3.4609,-3.4608,-3.4607,0,-3.4971,-3.4939,-3.4926,-3.4907,-3.4898,-3.4867,-3.4848,-3.4855,-3.4834,-3.4808,-3.4781,-3.4745,-3.4716,-3.4651,-3.464,-3.4603,-3.4607,-3.4562,-3.4602,-3.46,-3.4604,-3.4605,-3.4601,-3.4553,-3.4552,-3.4551,-3.455,0,-3.4866,-3.487,-3.4845,-3.482,-3.4798,-3.4777,-3.4758,-3.474,-3.4744,-3.4719,-3.4682,-3.466,-3.4614,-3.4576,-3.4541,-3.4527,-3.4537,-3.4538,-3.4526,-3.4523,-3.4525,-3.4521,-3.466,-3.4541,-3.4542,-3.4542,-3.4543,-3.4543,-3.4789,-3.4761,-3.4748,-3.4718,-3.4706,-3.4687,-3.4659,-3.4655,-3.4625,-3.4591,-3.4596,-3.4554,-3.4532,-3.4486,-3.447,-3.4434,-3.4448,-3.4431,-3.4427,-3.4422,-3.4417,-3.4533,-3.4427,-3.4428,-3.4428,-3.4428,-3.4428,0,-3.4683,-3.4676,-3.4649,-3.4624,-3.46,-3.4618,-3.4597,-3.4574,-3.4539,-3.452,-3.4492,-3.4447,-3.4411,-3.4397,-3.4361,-3.4334,-3.4338,-3.4324,-3.4325,-3.4321,-3.4407,-3.442,-3.4321,-3.4321,-3.4321,-3.4321,-3.4322,-3.4322,-3.4625,-3.4579,-3.4581,-3.4528,-3.452,-3.4482,-3.4469,-3.4451,-3.4436,-3.4387,-3.4359,-3.4352,-3.4334,-3.4296,-3.4262,-3.4258,-3.4243,-3.4226,-3.4224,-3.4304,-3.4315,-3.4325,-3.4338,-3.4223,-3.4223,-3.4141,-3.414,-3.414]}]]